RYR1FE EHEH-EGSS

Flight info

Callsign RYR1FE
Flight time N/A
Altitude 24000
Route ABNED L980 XAMAN
Aircraft B738/M-SDE3FGILRWY/SB1

Departure

Time 2026-05-05 17:50
Airport Eindhoven Airport (EHEH)

Arrival

Time N/A
Airport London Stansted Airport (EGSS)
Time Latitude Longitude Altitude Speed Heading
2026-05-05 17:15 51.45682 5.38862 74 ft 0 kts 124°
2026-05-05 17:37 51.45683 5.38862 74 ft 1 kts 124°
2026-05-05 17:38 51.45690 5.38845 65 ft 3 kts 127°
2026-05-05 17:38 51.45702 5.38820 63 ft 3 kts 124°
2026-05-05 17:38 51.45712 5.38792 69 ft 3 kts 112°
2026-05-05 17:38 51.45717 5.38765 68 ft 3 kts 75°
2026-05-05 17:39 51.45708 5.38740 61 ft 3 kts 38°
2026-05-05 17:39 51.45696 5.38726 69 ft 1 kts 35°
2026-05-05 17:41 51.45701 5.38732 66 ft 3 kts 35°
2026-05-05 17:41 51.45734 5.38769 67 ft 8 kts 35°
2026-05-05 17:42 51.45788 5.38777 70 ft 8 kts 324°
2026-05-05 17:42 51.45824 5.38705 74 ft 8 kts 304°
2026-05-05 17:42 51.45856 5.38632 74 ft 8 kts 305°
2026-05-05 17:42 51.45887 5.38561 67 ft 8 kts 305°
2026-05-05 17:43 51.45919 5.38489 76 ft 9 kts 306°
2026-05-05 17:43 51.45968 5.38383 68 ft 14 kts 306°
2026-05-05 17:43 51.45991 5.38277 69 ft 10 kts 243°
2026-05-05 17:43 51.45938 5.38208 71 ft 10 kts 214°
2026-05-05 17:44 51.45877 5.38140 72 ft 12 kts 215°
2026-05-05 17:44 51.45829 5.38086 65 ft 13 kts 215°
2026-05-05 17:44 51.45746 5.37993 72 ft 16 kts 215°
2026-05-05 17:44 51.45651 5.37888 65 ft 18 kts 215°
2026-05-05 17:45 51.45550 5.37774 64 ft 18 kts 215°
2026-05-05 17:45 51.45452 5.37664 74 ft 17 kts 215°
2026-05-05 17:45 51.45350 5.37549 72 ft 20 kts 214°
2026-05-05 17:45 51.45227 5.37413 70 ft 23 kts 215°
2026-05-05 17:46 51.45087 5.37255 67 ft 26 kts 215°
2026-05-05 17:46 51.44941 5.37091 68 ft 25 kts 215°
2026-05-05 17:46 51.44804 5.36938 68 ft 23 kts 215°
2026-05-05 17:46 51.44675 5.36793 69 ft 22 kts 215°
2026-05-05 17:47 51.44549 5.36652 71 ft 22 kts 215°
2026-05-05 17:47 51.44428 5.36517 69 ft 21 kts 214°
2026-05-05 17:47 51.44308 5.36383 70 ft 21 kts 215°
2026-05-05 17:47 51.44192 5.36254 74 ft 20 kts 215°
2026-05-05 17:48 51.44086 5.36134 70 ft 17 kts 215°
2026-05-05 17:48 51.44025 5.36074 68 ft 0 kts 198°
2026-05-05 17:48 51.44015 5.36071 66 ft 6 kts 184°
2026-05-05 17:48 51.43960 5.36136 73 ft 14 kts 125°
2026-05-05 17:49 51.43946 5.36256 70 ft 13 kts 41°
2026-05-05 17:49 51.44062 5.36386 71 ft 30 kts 34°
2026-05-05 17:49 51.44373 5.36734 66 ft 86 kts 35°
2026-05-05 17:49 51.45037 5.37477 83 ft 146 kts 33°
2026-05-05 17:50 51.45964 5.38494 545 ft 165 kts 32°
2026-05-05 17:50 51.46873 5.39442 1709 ft 143 kts 33°
2026-05-05 17:50 51.47700 5.40382 2513 ft 148 kts 35°
2026-05-05 17:50 51.48545 5.41348 3215 ft 155 kts 36°
2026-05-05 17:51 51.49430 5.42369 3904 ft 159 kts 37°